H1 CPF 2 NER 2023 8 20 9 232 01 glonass142 H2 2001801 9142 45358 2023 8 20 0 0 0 2023 8 23 23 45 0 900 1 1 0 0 0 1 H9 10 0 60176 0.00000 0 -12851933.023 5862688.067 21246946.771 10 0 60176 900.00000 0 -15274149.537 5129197.976 19779911.919 10 0 60176 1800.00000 0 -17546413.299 4626609.400 17928888.815 10 0 60176 2700.00000 0 -19604936.290 4338595.319 15729692.445 10 0 60176 3600.00000 0 -21392020.211 4237599.792 13224924.433 10 0 60176 4500.00000 0 -22858324.977 4286201.704 10463155.411 10 0 60176 5400.00000 0 -23964805.977 4438905.171 7497988.323 10 0 60176 6300.00000 0 -24684238.519 4644281.083 4387020.181 10 0 60176 7200.00000 0 -25002264.787 4847369.055 1190722.239 10 0 60176 8100.00000 0 -24917918.596 4992237.614 -2028739.519 10 0 60176 9000.00000 0 -24443605.210 5024593.354 -5208720.097 10 0 60176 9900.00000 0 -23604536.531 4894327.320 -8287322.863 10 0 60176 10800.00000 0 -22437645.242 4557889.347 -11204613.666 10 0 60176 11700.00000 0 -20990023.671 3980388.212 -13903796.938 10 0 60176 12600.00000 0 -19316953.497 3137327.128 -16332329.805 10 0 60176 13500.00000 0 -17479609.754 2015899.669 -18442951.642 10 0 60176 14400.00000 0 -15542536.367 615789.995 -20194608.431 10 0 60176 15300.00000 0 -13570999.975 -1050557.556 -21553253.601 10 0 60176 16200.00000 0 -11628333.595 -2958211.848 -22492509.761 10 0 60176 17100.00000 0 -9773381.801 -5070560.626 -22994178.724 10 0 60176 18000.00000 0 -8058154.418 -7340615.312 -23048590.345 10 0 60176 18900.00000 0 -6525786.510 -9712760.707 -22654783.967 10 0 60176 19800.00000 0 -5208889.246 -12124876.851 -21820519.571 10 0 60176 20700.00000 0 -4128359.499 -14510744.632 -20562119.001 10 0 60176 21600.00000 0 -3292696.554 -16802635.035 -18904140.866 10 0 60176 22500.00000 0 -2697852.861 -18933974.302 -16878895.875 10 0 60176 23400.00000 0 -2327623.350 -20841974.070 -14525812.353 10 0 60176 24300.00000 0 -2154555.131 -22470117.234 -11890664.534 10 0 60176 25200.00000 0 -2141337.684 -23770396.265 -9024678.834 10 0 60176 26100.00000 0 -2242613.474 -24705211.030 -5983535.668 10 0 60176 27000.00000 0 -2407131.446 -25248847.658 -2826286.392 10 0 60176 27900.00000 0 -2580151.498 -25388477.246 385793.454 10 0 60176 28800.00000 0 -2705997.689 -25124633.531 3590392.182 10 0 60176 29700.00000 0 -2730651.878 -24471150.451 6725368.108 10 0 60176 30600.00000 0 -2604278.006 -23454563.037 9729950.492 10 0 60176 31500.00000 0 -2283570.353 -22112997.373 12545912.080 10 0 60176 32400.00000 0 -1733826.581 -20494596.516 15118690.920 10 0 60176 33300.00000 0 -930658.134 -18655548.476 17398440.244 10 0 60176 34200.00000 0 138734.251 -16657798.582 19340986.728 10 0 60176 35100.00000 0 1474773.976 -14566541.422 20908679.389 10 0 60176 36000.00000 0 3065244.741 -12447596.290 22071113.532 10 0 60176 36900.00000 0 4885561.564 -10364774.747 22805716.449 10 0 60176 37800.00000 0 6899566.727 -8377348.903 23098184.156 10 0 60176 38700.00000 0 9060819.128 -6537724.812 22942761.041 10 0 60176 39600.00000 0 11314325.075 -4889416.847 22342357.027 10 0 60176 40500.00000 0 13598640.298 -3465406.563 21308499.627 10 0 60176 41400.00000 0 15848257.448 -2286953.728 19861121.149 10 0 60176 42300.00000 0 17996181.132 -1362908.710 18028184.178 10 0 60176 43200.00000 0 19976584.433 -689554.666 15845151.448 10 0 60176 44100.00000 0 21727436.841 -250986.043 13354309.104 10 0 60176 45000.00000 0 23192994.198 -20007.523 10603955.337 10 0 60176 45900.00000 0 24326046.333 40484.390 7647469.174 10 0 60176 46800.00000 0 25089827.759 -24304.574 4542276.795 10 0 60176 47700.00000 0 25459510.443 -163220.267 1348735.250 10 0 60176 48600.00000 0 25423214.993 -321570.259 -1871044.617 10 0 60176 49500.00000 0 24982496.756 -443687.485 -5054412.647 10 0 60176 50400.00000 0 24152285.530 -475537.765 -8139406.725 10 0 60176 51300.00000 0 22960280.784 -367259.407 -11065968.127 10 0 60176 52200.00000 0 21445827.522 -75525.830 -13777120.092 10 0 60176 53100.00000 0 19658320.061 434370.345 -16220085.559 10 0 60176 54000.00000 0 17655201.098 1186801.423 -18347321.453 10 0 60176 54900.00000 0 15499640.564 2194530.889 -20117448.746 10 0 60176 55800.00000 0 13257992.204 3457936.716 -21496059.829 10 0 60176 56700.00000 0 10997134.992 4964765.502 -22456387.456 10 0 60176 57600.00000 0 8781810.984 6690428.551 -22979822.508 10 0 60176 58500.00000 0 6672071.059 8598828.044 -23056270.904 10 0 60176 59400.00000 0 4720934.986 10643679.099 -22684343.338 10 0 60176 60300.00000 0 2972362.903 12770272.638 -21871374.749 10 0 60176 61200.00000 0 1459621.909 14917605.515 -20633273.756 10 0 60176 62100.00000 0 204114.621 17020788.991 -18994205.524 10 0 60176 63000.00000 0 -785283.040 19013635.094 -16986114.650 10 0 60176 63900.00000 0 -1512348.915 20831312.943 -14648097.699 10 0 60176 64800.00000 0 -1993103.220 22412964.237 -12025637.859 10 0 60176 65700.00000 0 -2254877.855 23704168.856 -9169716.745 10 0 60176 66600.00000 0 -2334907.355 24659157.958 -6135820.921 10 0 60176 67500.00000 0 -2278502.374 25242682.311 -2982862.507 10 0 60176 68400.00000 0 -2136884.022 25431458.125 227964.962 10 0 60176 69300.00000 0 -1964771.439 25215130.577 3434373.045 10 0 60176 70200.00000 0 -1817825.180 24596715.224 6574184.174 10 0 60176 71100.00000 0 -1750054.788 23592499.450 9586533.349 10 0 60176 72000.00000 0 -1811300.194 22231408.530 12413042.579 10 0 60176 72900.00000 0 -2044893.322 20553863.159 14998945.656 10 0 60176 73800.00000 0 -2485598.483 18610176.319 17294142.009 10 0 60176 74700.00000 0 -3157918.362 16458556.296 19254159.875 10 0 60176 75600.00000 0 -4074837.063 14162798.751 20841010.918 10 0 60176 76500.00000 0 -5237053.473 11789763.315 22023920.621 10 0 60176 77400.00000 0 -6632737.843 9406738.872 22779921.010 10 0 60176 78300.00000 0 -8237822.895 7078806.072 23094294.881 10 0 60176 79200.00000 0 -10016818.678 4866305.535 22960863.273 10 0 60176 80100.00000 0 -11924118.777 2822515.906 22382110.640 10 0 60176 81000.00000 0 -13905745.127 991637.241 21369145.007 10 0 60176 81900.00000 0 -15901460.415 -592837.279 19941493.179 10 0 60176 82800.00000 0 -17847161.522 -1909294.111 18126734.043 10 0 60176 83700.00000 0 -19677455.464 -2948668.177 15959975.903 10 0 60176 84600.00000 0 -21328311.164 -3714580.069 13483186.730 10 0 60176 85500.00000 0 -22739676.622 -4222936.037 10744389.153 10 0 60177 0.00000 0 -23857951.821 -4501007.633 7796735.097 10 0 60177 900.00000 0 -24638213.771 -4586029.974 4697475.715 10 0 60177 1800.00000 0 -25046098.020 -4523377.660 1506850.351 10 0 60177 2700.00000 0 -25059258.443 -4364396.288 -1713089.053 10 0 60177 3600.00000 0 -24668341.149 -4163981.573 -4899690.851 10 0 60177 4500.00000 0 -23877430.998 -3978009.699 -7990930.968 10 0 60177 5400.00000 0 -22703950.796 -3860728.870 -10926629.424 10 0 60177 6300.00000 0 -21178016.665 -3862223.927 -13649631.298 10 0 60177 7200.00000 0 -19341276.294 -4026062.829 -16106928.037 10 0 60177 8100.00000 0 -17245278.761 -4387226.032 -18250696.392 10 0 60177 9000.00000 0 -14949444.518 -4970407.639 -20039234.097 10 0 60177 9900.00000 0 -12518720.971 -5788761.206 -21437773.709 10 0 60177 10800.00000 0 -10021022.220 -6843144.064 -22419158.725 10 0 60177 11700.00000 0 -7524560.284 -8121892.685 -22964369.064 10 0 60177 12600.00000 0 -5095179.473 -9601139.064 -23062886.105 10 0 60177 13500.00000 0 -2793804.960 -11245655.150 -22712890.763 10 0 60177 14400.00000 0 -674111.478 -13010190.081 -21921291.367 10 0 60177 15300.00000 0 1219491.484 -14841244.281 -20703581.398 10 0 60177 16200.00000 0 2853475.190 -16679206.113 -19083530.400 10 0 60177 17100.00000 0 4206341.988 -18460761.671 -17092714.492 10 0 60177 18000.00000 0 5269264.235 -20121476.814 -14769895.993 10 0 60177 18900.00000 0 6046187.003 -21598443.417 -12160264.471 10 0 60177 19800.00000 0 6553392.357 -22832879.133 -9314554.181 10 0 60177 20700.00000 0 6818545.424 -23772571.968 -6288055.261 10 0 60177 21600.00000 0 6879264.189 -24374067.426 -3139538.059 10 0 60177 22500.00000 0 6781274.800 -24604506.972 69888.334 10 0 60177 23400.00000 0 6576231.411 -24443040.869 3277961.066 10 0 60177 24300.00000 0 6319293.532 -23881756.693 6422468.923 10 0 60177 25200.00000 0 6066563.729 -22926085.091 9442454.756 10 0 60177 26100.00000 0 5872494.159 -21594665.882 12279391.792 10 0 60177 27000.00000 0 5787371.468 -19918680.347 14878311.351 10 0 60177 27900.00000 0 5854986.068 -17940677.545 17188860.656 10 0 60177 28800.00000 0 6110583.883 -15712943.438 19166270.866 10 0 60177 29700.00000 0 6579186.723 -13295480.317 20772217.416 10 0 60177 30600.00000 0 7274352.001 -10753679.884 21975556.814 10 0 60177 31500.00000 0 8197424.262 -8155785.865 22752926.398 10 0 60177 32400.00000 0 9337310.575 -5570250.388 23089196.048 10 0 60177 33300.00000 0 10670790.243 -3063092.705 22977763.506 10 0 60177 34200.00000 0 12163347.175 -695368.643 22420687.592 10 0 60177 35100.00000 0 13770491.653 1479145.294 21428656.458 10 0 60177 36000.00000 0 15439517.894 3415958.029 20020790.850 10 0 60177 36900.00000 0 17111625.514 5081477.563 18224285.224 10 0 60177 37800.00000 0 18724317.559 6454165.599 16073892.549 10 0 60177 38700.00000 0 20213975.886 7525185.375 13611261.517 10 0 60177 39600.00000 0 21518506.601 8298515.812 10884137.866 10 0 60177 40500.00000 0 22579944.836 8790527.374 7945444.307 10 0 60177 41400.00000 0 23346909.164 9029037.586 4852256.191 10 0 60177 42300.00000 0 23776801.743 9051886.164 1664692.538 10 0 60177 43200.00000 0 23837660.506 8905090.256 -1555255.949 10 0 60177 44100.00000 0 23509584.120 8640658.291 -4744938.649 10 0 60177 45000.00000 0 22785668.274 8314155.738 -7842272.147 10 0 60177 45900.00000 0 21672412.574 7982126.863 -10786957.828 10 0 60177 46800.00000 0 20189579.759 7699482.866 -13521665.176 10 0 60177 47700.00000 0 18369512.333 7516968.314 -15993156.574 10 0 60177 48600.00000 0 16255934.807 7478814.407 -18153330.868 10 0 60177 49500.00000 0 13902291.570 7620679.556 -19960164.653 10 0 60177 50400.00000 0 11369690.120 7967965.353 -21378532.582 10 0 60177 51300.00000 0 8724535.878 8534579.828 -22380890.668 10 0 60177 52200.00000 0 6035957.635 9322200.760 -22947809.468 10 0 60177 53100.00000 0 3373131.228 10320070.395 -23068347.218 10 0 60177 54000.00000 0 802612.982 11505330.375 -22740256.194 10 0 60177 54900.00000 0 -1614206.357 12843882.841 -21970018.934 10 0 60177 55800.00000 0 -3823421.758 14291741.399 -20772714.223 10 0 60177 56700.00000 0 -5780612.522 15796815.147 -19171715.991 10 0 60177 57600.00000 0 -7452437.403 17301050.729 -17198231.440 10 0 60177 58500.00000 0 -8817761.353 18742842.427 -14890687.745 10 0 60177 59400.00000 0 -9868268.642 20059609.005 -12293979.515 10 0 60177 60300.00000 0 -10608538.767 21190429.255 -9458591.871 10 0 60177 61200.00000 0 -11055583.933 22078625.567 -6439616.389 10 0 60177 62100.00000 0 -11237869.466 22674187.193 -3295679.198 10 0 60177 63000.00000 0 -11193860.073 22935931.542 -87802.189 10 0 60177 63900.00000 0 -10970154.647 22833312.888 3121780.371 10 0 60177 64800.00000 0 -10619289.427 22347802.893 6270826.760 10 0 60177 65700.00000 0 -10197302.947 21473785.106 9298290.943 10 0 60177 66600.00000 0 -9761166.011 20218926.083 12145500.680 10 0 60177 67500.00000 0 -9366185.205 18604007.598 14757288.114 10 0 60177 68400.00000 0 -9063489.408 16662226.680 17083051.462 10 0 60177 69300.00000 0 -8897704.941 14437992.393 19077727.863 10 0 60177 70200.00000 0 -8904916.971 11985268.902 20702659.350 10 0 60177 71100.00000 0 -9111002.672 9365532.941 21926336.012 10 0 60177 72000.00000 0 -9530406.166 6645429.547 22725002.700 10 0 60177 72900.00000 0 -10165406.870 3894222.206 23083118.173 10 0 60177 73800.00000 0 -11005912.499 1181141.843 22993658.192 10 0 60177 74700.00000 0 -12029786.265 -1427256.705 22458256.719 10 0 60177 75600.00000 0 -13203695.750 -3869622.360 21487182.243 10 0 60177 76500.00000 0 -14484449.259 -6092115.911 20099149.039 10 0 60177 77400.00000 0 -15820765.122 -8050403.574 18320966.110 10 0 60177 78300.00000 0 -17155401.198 -9711253.798 16187029.453 10 0 60177 79200.00000 0 -18427556.427 -11053671.270 13738666.294 10 0 60177 80100.00000 0 -19575444.469 -12069521.013 11023342.794 10 0 60177 81000.00000 0 -20538931.663 -12763616.604 8093749.621 10 0 60177 81900.00000 0 -21262128.275 -13153268.907 5006782.375 10 0 60177 82800.00000 0 -21695823.332 -13267314.399 1822436.374 10 0 60177 83700.00000 0 -21799659.470 -13144664.269 -1397362.683 10 0 60177 84600.00000 0 -21543954.765 -12832435.950 -4589969.020 10 0 60177 85500.00000 0 -20911093.255 -12383746.683 -7693243.664 10 0 60178 0.00000 0 -19896424.080 -11855263.374 -10646772.802 10 0 60178 900.00000 0 -18508629.312 -11304613.190 -13393054.350 10 0 60178 1800.00000 0 -16769545.233 -10787766.384 -15878624.597 10 0 60178 2700.00000 0 -14713441.836 -10356502.332 -18055107.335 10 0 60178 3600.00000 0 -12385791.464 -10056067.748 -19880160.400 10 0 60178 4500.00000 0 -9841577.407 -9923126.720 -21318302.349 10 0 60178 5400.00000 0 -7143213.243 -9984089.865 -22341602.866 10 0 60178 6300.00000 0 -4358159.843 -10253893.538 -22930223.642 10 0 60178 7200.00000 0 -1556339.575 -10735280.707 -23072799.594 10 0 60178 8100.00000 0 1192544.623 -11418613.757 -22766653.587 10 0 60178 9000.00000 0 3821673.860 -12282226.839 -22017841.075 10 0 60178 9900.00000 0 6269651.187 -13293302.613 -20841024.426 10 0 60178 10800.00000 0 8482807.914 -14409236.130 -19259179.899 10 0 60178 11700.00000 0 10417183.431 -15579428.107 -17303143.449 10 0 60178 12600.00000 0 12040097.377 -16747431.827 -15011004.551 10 0 60178 13500.00000 0 13331250.249 -17853363.147 -12427360.131 10 0 60178 14400.00000 0 14283308.313 -18836472.038 -9602443.312 10 0 60178 15300.00000 0 14901950.175 -19637767.337 -6591144.121 10 0 60178 16200.00000 0 15205375.130 -20202584.359 -3451941.411 10 0 60178 17100.00000 0 15223295.579 -20482987.240 -245766.822 10 0 60178 18000.00000 0 14995457.567 -20439904.998 2965176.939 10 0 60178 18900.00000 0 14569753.060 -20044911.640 6118620.512 10 0 60178 19800.00000 0 14000004.488 -19281575.574 9153431.617 10 0 60178 20700.00000 0 13343515.539 -18146321.645 12010794.913 10 0 60178 21600.00000 0 12658491.705 -16648769.465 14635345.412 10 0 60178 22500.00000 0 12001439.240 -14811533.572 16976234.020 10 0 60178 23400.00000 0 11424651.792 -12669493.290 18988105.183 10 0 60178 24300.00000 0 10973890.057 -10268561.996 20631968.486 10 0 60178 25200.00000 0 10686351.546 -7664006.084 21875948.181 10 0 60178 26100.00000 0 10589015.358 -4918382.389 22695896.861 10 0 60178 27000.00000 0 10697431.256 -2099178.371 23075862.071 10 0 60178 27900.00000 0 11015003.880 723748.493 23008397.199 10 0 60178 28800.00000 0 11532802.511 3480827.386 22494710.708 10 0 60178 29700.00000 0 12229905.022 6105418.151 21544650.558 10 0 60178 30600.00000 0 13074262.593 8536334.256 20176523.516 10 0 60178 31500.00000 0 14024050.038 10720141.003 18416751.929 10 0 60178 32400.00000 0 15029446.278 12613134.268 16299373.497 10 0 60178 33300.00000 0 16034771.307 14182917.922 13865392.508 10 0 60178 34200.00000 0 16980890.672 15409514.390 11161993.931 10 0 60178 35100.00000 0 17807786.796 16285962.032 8241634.620 10 0 60178 36000.00000 0 18457188.931 16818374.294 5161028.491 10 0 60178 36900.00000 0 18875150.437 17025458.141 1980045.064 10 0 60178 37800.00000 0 19014463.803 16937512.097 -1239457.199 10 0 60178 38700.00000 0 18836810.246 16594946.354 -4434839.676 10 0 60178 39600.00000 0 18314551.616 16046387.885 -7543910.175 10 0 60178 40500.00000 0 17432087.363 15346451.277 -10506142.489 10 0 60178 41400.00000 0 16186717.670 14553270.432 -13263864.101 10 0 60178 42300.00000 0 14588974.897 13725896.518 -15763387.793 10 0 60178 43200.00000 0 12662408.123 12921673.275 -17956064.199 10 0 60178 44100.00000 0 10442828.831 12193701.607 -19799234.122 10 0 60178 45000.00000 0 7977048.747 11588501.422 -21257061.610 10 0 60178 45900.00000 0 5321162.233 11143970.022 -22301231.475 10 0 60178 46800.00000 0 2538444.839 10887723.489 -22911497.850 10 0 60178 47700.00000 0 -303044.353 10835890.986 -23076073.483 10 0 60178 48600.00000 0 -3133056.767 10992412.512 -22791852.755 10 0 60178 49500.00000 0 -5881836.907 11348869.186 -22064464.682 10 0 60178 50400.00000 0 -8482782.154 11884852.556 -20908155.511 10 0 60178 51300.00000 0 -10874969.703 12568856.681 -19345503.743 10 0 60178 52200.00000 0 -13005446.324 13359654.717 -17406973.590 10 0 60178 53100.00000 0 -14831186.688 14208101.374 -15130315.947 10 0 60178 54000.00000 0 -16320639.986 15059284.790 -12559828.813 10 0 60178 54900.00000 0 -17454801.856 15854936.687 -9745491.740 10 0 60178 55800.00000 0 -18227768.594 16535999.014 -6741991.386 10 0 60178 56700.00000 0 -18646752.150 17045238.646 -3607657.267 10 0 60178 57600.00000 0 -18731557.019 17329799.767 -403328.488 10 0 60178 58500.00000 0 -18513542.684 17343586.425 2808826.279 10 0 60178 59400.00000 0 -18034116.564 17049374.787 5966512.670 10 0 60178 60300.00000 0 -17342822.063 16420566.228 9008514.973 10 0 60178 61200.00000 0 -16495102.958 15442507.465 11875877.678 10 0 60178 62100.00000 0 -15549838.640 14113322.059 14513041.685 10 0 60178 63000.00000 0 -14566754.008 12444218.035 16868913.625 10 0 60178 63900.00000 0 -13603812.755 10459258.229 18897848.216 10 0 60178 64800.00000 0 -12714703.132 8194602.095 20560525.428 10 0 60178 65700.00000 0 -11946521.202 5697249.565 21824706.270 10 0 60178 66600.00000 0 -11337748.168 3023337.964 22665853.379 10 0 60178 67500.00000 0 -10916606.081 236061.321 23067605.012 10 0 60178 68400.00000 0 -10699860.438 -2596703.174 23022093.684 10 0 60178 69300.00000 0 -10692119.807 -5404964.662 22530103.380 10 0 60178 70200.00000 0 -10885661.952 -8119279.090 21601062.043 10 0 60178 71100.00000 0 -11260794.281 -10673391.737 20252868.905 10 0 60178 72000.00000 0 -11786734.185 -13006753.256 18511559.088 10 0 60178 72900.00000 0 -12422973.197 -15066805.596 16410810.881 10 0 60178 73800.00000 0 -13121068.534 -16810943.265 13991304.010 10 0 60178 74700.00000 0 -13826787.453 -18208068.438 11299940.167 10 0 60178 75600.00000 0 -14482514.615 -19239674.988 8388939.890 10 0 60178 76500.00000 0 -15029821.160 -19900415.951 5314832.566 10 0 60178 77400.00000 0 -15412086.802 -20198130.408 2137358.800 10 0 60178 78300.00000 0 -15577063.494 -20153328.518 -1081693.518 10 0 60178 79200.00000 0 -15479271.258 -19798156.378 -4279696.423 10 0 60178 80100.00000 0 -15082123.454 -19174884.522 -7394408.108 10 0 60178 81000.00000 0 -14359690.060 -18333984.333 -10365193.369 10 0 60178 81900.00000 0 -13298022.779 -17331874.209 -13134213.398 10 0 60178 82800.00000 0 -11895984.382 -16228431.593 -15647560.680 10 0 60178 83700.00000 0 -10165545.847 -15084376.850 -17856315.921 10 0 60178 84600.00000 0 -8131537.500 -13958640.387 -19717505.759 10 0 60178 85500.00000 0 -5830863.643 -12905824.926 -21194942.111 10 0 60179 0.00000 0 -3311213.103 -11973870.579 -22259926.642 10 0 60179 900.00000 0 -629317.799 -11202020.931 -22891807.300 10 0 60179 1800.00000 0 2151164.799 -10619176.929 -23078375.084 10 0 60179 2700.00000 0 4962061.685 -10242705.822 -22816095.816 10 0 60179 3600.00000 0 7733283.276 -10077755.851 -22110171.458 10 0 60179 4500.00000 0 10395504.659 -10117104.107 -20974431.042 10 0 60179 5400.00000 0 12882817.751 -10341543.005 -19431053.802 10 0 60179 6300.00000 0 15135244.609 -10720788.016 -17510130.334 10 0 60179 7200.00000 0 17101008.014 -11214867.406 -15249070.740 10 0 60179 8100.00000 0 18738465.795 -11775934.457 -12691871.548 10 0 60179 9000.00000 0 20017629.438 -12350424.999 -9888255.900 10 0 60179 9900.00000 0 20921205.025 -12881468.631 -6892703.951 10 0 60179 10800.00000 0 21445114.492 -13311451.439 -3763392.513 10 0 60179 11700.00000 0 21598476.983 -13584621.796 -561064.683 10 0 60179 12600.00000 0 21403052.507 -13649629.008 2652148.420 10 0 60179 13500.00000 0 20892172.715 -13461887.610 5813930.864 10 0 60179 14400.00000 0 20109204.979 -12985667.718 8862986.722 10 0 60179 15300.00000 0 19105615.086 -12195823.150 11740223.230 10 0 60179 16200.00000 0 17938710.557 -11079084.497 14389889.697 10 0 60179 17100.00000 0 16669159.593 -9634862.469 16760650.569 10 0 60179 18000.00000 0 15358389.706 -7875527.260 18806572.478 10 0 60179 18900.00000 0 14065974.779 -5826151.452 20488006.952 10 0 60179 19800.00000 0 12847119.489 -3523726.118 21772352.511 10 0 60179 20700.00000 0 11750345.740 -1015881.488 22634682.170 10 0 60179 21600.00000 0 10815477.204 1640836.102 23058224.843 10 0 60179 22500.00000 0 10072005.648 4383061.084 23034691.761 10 0 60179 23400.00000 0 9537906.923 7142993.975 22564441.690 10 0 60179 24300.00000 0 9218955.890 9850977.870 21656481.529 10 0 60179 25200.00000 0 9108568.988 12438160.758 20328301.682 10 0 60179 26100.00000 0 9188181.330 14839134.399 18605548.540 10 0 60179 27000.00000 0 9428142.961 16994441.127 16521539.287 10 0 60179 27900.00000 0 9789097.213 18852844.915 14116627.230 10 0 60179 28800.00000 0 10223783.785 20373272.332 11437428.776 10 0 60179 29700.00000 0 10679191.008 21526342.353 8535926.008 10 0 60179 30600.00000 0 11098966.728 22295420.762 5468461.511 10 0 60179 31500.00000 0 11425985.839 22677154.577 2294644.588 10 0 60179 32400.00000 0 11604965.393 22681463.675 -923809.893 10 0 60179 33300.00000 0 11585015.755 22330989.686 -4124287.095 10 0 60179 34200.00000 0 11322018.550 21660025.252 -7244498.028 10 0 60179 35100.00000 0 10780729.289 20712968.950 -10223700.798 10 0 60179 36000.00000 0 9936514.042 19542371.431 -13003892.462 10 0 60179 36900.00000 0 8776645.064 18206655.842 -15530947.154 10 0 60179 37800.00000 0 7301099.058 16767609.454 -17755677.397 10 0 60179 38700.00000 0 5522822.984 15287753.082 -19634797.196 10 0 60179 39600.00000 0 3467454.985 13827699.907 -21131767.681 10 0 60179 40500.00000 0 1172511.220 12443615.495 -22217508.696 10 0 60179 41400.00000 0 -1313928.069 11184886.176 -22870962.600 10 0 60179 42300.00000 0 -3934978.730 10092093.791 -23079499.662 10 0 60179 43200.00000 0 -6627085.955 9195381.506 -22839157.687 10 0 60179 44100.00000 0 -9322441.883 8513278.582 -22154711.824 10 0 60179 45000.00000 0 -11951587.015 8052032.433 -21039573.791 10 0 60179 45900.00000 0 -14446087.392 7805474.739 -19515523.084 10 0 60179 46800.00000 0 -16741176.493 7755425.868 -17612275.848 10 0 60179 47700.00000 0 -18778252.348 7872619.150 -15366900.223 10 0 60179 48600.00000 0 -20507126.500 8118104.760 -12823089.812 10 0 60179 49500.00000 0 -21887932.065 8445072.826 -10030309.666 10 0 60179 50400.00000 0 -22892612.241 8801017.909 -7042831.593 10 0 60179 51300.00000 0 -23505928.296 9130152.686 -3918677.729 10 0 60179 52200.00000 0 -23725946.186 9375968.366 -718493.045 10 0 60179 53100.00000 0 -23563982.660 9483833.282 2495631.134 10 0 60179 54000.00000 0 -23044014.471 9403519.716 5661359.679 10 0 60179 54900.00000 0 -22201576.570 9091552.166 8717318.965 10 0 60179 55800.00000 0 -21082196.444 8513277.922 11604281.615 10 0 60179 56700.00000 0 -19739430.916 7644572.615 14266308.071 10 0 60179 57600.00000 0 -18232587.962 6473108.634 16651823.331 10 0 60179 58500.00000 0 -16624229.110 4999132.742 18714608.615 10 0 60179 59400.00000 0 -14977556.634 3235719.580 20414689.540 10 0 60179 60300.00000 0 -13353794.316 1208489.453 21719104.429 10 0 60179 61200.00000 0 -11809670.504 -1045199.052 22602538.652 10 0 60179 62100.00000 0 -10395107.756 -3477549.507 23047813.402 10 0 60179 63000.00000 0 -9151214.705 -6032068.713 23046219.845 10 0 60179 63900.00000 0 -8108663.206 -8645677.810 22597692.333 10 0 60179 64800.00000 0 -7286517.993 -11251107.531 21710817.088 10 0 60179 65700.00000 0 -6691567.335 -13779479.774 20402675.633 10 0 60179 66600.00000 0 -6318182.621 -16162969.676 18698525.132 10 0 60179 67500.00000 0 -6148712.793 -18337438.616 16631320.751 10 0 60179 68400.00000 0 -6154397.368 -20244929.320 14241088.057 10 0 60179 69300.00000 0 -6296759.967 -21835919.370 11574156.468 10 0 60179 70200.00000 0 -6529423.992 -23071239.017 8682267.573 10 0 60179 71100.00000 0 -6800274.009 -23923572.753 5621574.816 10 0 60179 72000.00000 0 -7053871.459 -24378481.158 2451553.612 10 0 60179 72900.00000 0 -7234022.095 -24434899.523 -766157.007 10 0 60179 73800.00000 0 -7286385.740 -24105091.711 -3968958.332 10 0 60179 74700.00000 0 -7161016.709 -23414060.740 -7094517.344 10 0 60179 75600.00000 0 -6814725.938 -22398440.734 -10081988.752 10 0 60179 76500.00000 0 -6213163.216 -21104916.994 -12873208.819 10 0 60179 77400.00000 0 -5332529.755 -19588241.104 -15413836.662 10 0 60179 78300.00000 0 -4160847.079 -17908925.261 -17654419.812 10 0 60179 79200.00000 0 -2698727.142 -16130713.565 -19551362.595 10 0 60179 80100.00000 0 -959609.883 -14317937.387 -21067777.933 10 0 60179 81000.00000 0 1030542.871 -12532866.547 -22174205.886 10 0 60179 81900.00000 0 3234085.209 -10833167.906 -22849184.994 10 0 60179 82800.00000 0 5603022.130 -9269578.093 -23079665.695 10 0 60179 83700.00000 0 8080786.353 -7883887.634 -22861258.234 10 0 60179 84600.00000 0 10604383.046 -6707320.272 -22198310.884 10 0 60179 85500.00000 0 13106813.145 -5759374.395 -21103817.518 99